Overview Statistics Trail Chart Weather Telemetry Raw packets
 

This is the latest recevied weather packets stored in our database for station/object SR4DIG-13. If no packets are shown the sender has not sent any weather packets the latest 10 day(s).

<< 71 72 73 74 75 76 77 >>
Time Temp. Humidity Pressure Rain* Wind** Luminosity Snow
1788103914 23.33° C 50% 1014.2 hPa 0 mm - - -
1788103614 23.33° C 50% 1014.1 hPa 0 mm - - -
1788103313 23.33° C 49% 1014.1 hPa 0 mm - - -
1788103012 23.33° C 49% 1014.1 hPa 0 mm - - -
1788102410 23.89° C 49% 1014.2 hPa 0 mm - - -
1788102109 23.33° C 49% 1014.2 hPa 0 mm - - -
1788101808 23.89° C 48% 1014.3 hPa 0 mm - - -
1788101507 23.89° C 49% 1014.3 hPa 0 mm - - -
1788101207 23.89° C 49% 1014.3 hPa 0 mm - - -
1788100906 23.89° C 48% 1014.4 hPa 0 mm - - -
1788100605 23.89° C 48% 1014.4 hPa 0 mm - - -
1788100304 24.44° C 47% 1014.5 hPa 0 mm - - -
1788100003 26.11° C 45% 1014.5 hPa 0 mm - - -
1788099398 26.67° C 45% 1014.5 hPa 0 mm - - -
1788099097 26.11° C 47% 1014.5 hPa 0 mm - - -
1788098796 25° C 47% 1014.5 hPa 0 mm - - -
1788098495 24.44° C 47% 1014.6 hPa 0 mm - - -
1788098194 24.44° C 46% 1014.7 hPa 0 mm - - -
1788097893 25° C 46% 1014.7 hPa 0 mm - - -
1788097593 25° C 46% 1014.7 hPa 0 mm - - -
1788097292 25° C 45% 1014.7 hPa 0 mm - - -
1788096991 26.11° C 43% 1014.8 hPa 0 mm - - -
1788096690 27.78° C 41% 1014.7 hPa 0 mm - - -
1788096389 28.33° C 40% 1014.6 hPa 0 mm - - -
1788096088 28.33° C 43% 1014.6 hPa 0 mm - - -

* Rain latest hour (hover to see other rain measurements)
** Current wind speed in m/s (hover to see current wind gust speed)